Retour au catalogue

FENGYUN 1C DEB

ActifPO
NORAD 38499·DEBRIS·🇨🇳 China

Lancé May 10, 1999 depuis Taiyuan Satellite Launch Center

Loading…

Prochains Passages (prochaines 24 heures)

TLE

FraisSource: Space-Track

Époque: Sep 14, 2026, 01:52 UTC

1 38499U 99025ESJ 26257.07810116  .00001028  00000-0  90366-3 0  9992
2 38499  98.4028 126.1085 0225419 118.3576 244.0509 13.76336573793460

Suivez FENGYUN 1C DEB en temps réel avec AllMySat

Download on the App Store